Time,TemperatureF,DewpointF,PressureIn,WindDirection,WindDirectionDegrees,WindSpeedMPH,WindSpeedGustMPH,Humidity,HourlyPrecipIn,Conditions,Clouds,dailyrainin,SolarRadiationWatts/m^2,SoftwareType,DateUTC
2013-03-28 11:52:00,47.0,23.0,-100.00,NW,326,0.0,6.0,38,-99.99,,,0.00,633.000000,,2013-03-28 17:52:00,
2013-03-28 12:52:00,48.0,23.0,-100.00,WNW,296,3.0,8.0,37,0.00,,,0.00,772.000000,,2013-03-28 18:52:00,
2013-03-28 13:22:00,48.0,23.0,-100.00,WNW,296,3.0,8.0,37,0.00,,,0.00,772.000000,,2013-03-28 19:22:00,
2013-03-28 13:32:00,48.0,23.0,-100.00,WNW,296,3.0,8.0,37,0.00,,,0.00,772.000000,,2013-03-28 19:32:00,
2013-03-28 13:42:00,48.0,23.0,-100.00,WNW,296,3.0,8.0,37,0.00,,,0.00,772.000000,,2013-03-28 19:42:00,
2013-03-28 13:52:00,49.0,22.0,-100.00,WNW,297,3.0,9.0,34,0.00,,,0.00,819.000000,,2013-03-28 19:52:00,
2013-03-28 14:12:00,49.0,22.0,-100.00,WNW,297,3.0,9.0,34,0.00,,,0.00,819.000000,,2013-03-28 20:12:00,
2013-03-28 14:22:00,49.0,22.0,-100.00,WNW,297,3.0,9.0,34,0.00,,,0.00,819.000000,,2013-03-28 20:22:00,
2013-03-28 14:32:00,49.0,22.0,-100.00,WNW,297,3.0,9.0,34,0.00,,,0.00,819.000000,,2013-03-28 20:32:00,
2013-03-28 14:42:00,49.0,22.0,-100.00,WNW,297,3.0,9.0,34,0.00,,,0.00,819.000000,,2013-03-28 20:42:00,
2013-03-28 14:52:00,54.0,22.0,-100.00,NNW,344,4.0,8.0,29,0.00,,,0.00,723.000000,,2013-03-28 20:52:00,
2013-03-28 15:12:00,54.0,22.0,-100.00,NNW,344,4.0,8.0,29,0.00,,,0.00,723.000000,,2013-03-28 21:12:00,
2013-03-28 15:22:00,54.0,22.0,-100.00,NNW,344,4.0,8.0,29,0.00,,,0.00,723.000000,,2013-03-28 21:22:00,
2013-03-28 15:32:00,54.0,22.0,-100.00,NNW,344,4.0,8.0,29,0.00,,,0.00,723.000000,,2013-03-28 21:32:00,
2013-03-28 15:42:00,54.0,22.0,-100.00,NNW,344,4.0,8.0,29,0.00,,,0.00,723.000000,,2013-03-28 21:42:00,
2013-03-28 15:52:00,53.0,19.0,-100.00,West,272,3.0,9.0,26,0.00,,,0.00,731.000000,,2013-03-28 21:52:00,
2013-03-28 16:22:00,53.0,19.0,-100.00,West,272,3.0,9.0,26,0.00,,,0.00,731.000000,,2013-03-28 22:22:00,
2013-03-28 16:32:00,53.0,19.0,-100.00,West,272,3.0,9.0,26,0.00,,,0.00,731.000000,,2013-03-28 22:32:00,
2013-03-28 16:42:00,53.0,19.0,-100.00,West,272,3.0,9.0,26,0.00,,,0.00,731.000000,,2013-03-28 22:42:00,
2013-03-28 16:52:00,54.0,19.0,-100.00,NW,305,3.0,8.0,25,0.00,,,0.00,590.000000,,2013-03-28 22:52:00,
2013-03-28 17:12:00,54.0,19.0,-100.00,NW,305,3.0,8.0,25,0.00,,,0.00,590.000000,,2013-03-28 23:12:00,
2013-03-28 17:22:00,54.0,19.0,-100.00,NW,305,3.0,8.0,25,0.00,,,0.00,590.000000,,2013-03-28 23:22:00,
2013-03-28 17:32:00,54.0,19.0,-100.00,NW,305,3.0,8.0,25,0.00,,,0.00,590.000000,,2013-03-28 23:32:00,
2013-03-28 17:42:00,54.0,19.0,-100.00,NW,305,3.0,8.0,25,0.00,,,0.00,590.000000,,2013-03-28 23:42:00,
2013-03-28 18:12:00,49.0,17.0,-100.00,NW,304,3.0,9.0,28,0.00,,,0.00,366.000000,,2013-03-29 00:12:00,
2013-03-28 18:22:00,49.0,17.0,-100.00,NW,304,3.0,9.0,28,0.00,,,0.00,366.000000,,2013-03-29 00:22:00,
2013-03-28 18:32:00,49.0,17.0,-100.00,NW,304,3.0,9.0,28,0.00,,,0.00,366.000000,,2013-03-29 00:32:00,
2013-03-28 18:42:00,49.0,17.0,-100.00,NW,304,3.0,9.0,28,0.00,,,0.00,366.000000,,2013-03-29 00:42:00,
2013-03-28 18:51:00,49.0,17.0,-100.00,NW,304,3.0,9.0,28,0.00,,,0.00,366.000000,,2013-03-29 00:51:00,
2013-03-28 18:52:00,46.0,18.0,-100.00,West,272,1.0,8.0,32,0.00,,,-99.99,129.000000,,2013-03-29 00:52:00,
2013-03-28 19:12:00,46.0,18.0,-100.00,West,272,1.0,8.0,32,0.00,,,-99.99,129.000000,,2013-03-29 01:12:00,
2013-03-28 19:22:00,46.0,18.0,-100.00,West,272,1.0,8.0,32,0.00,,,-99.99,129.000000,,2013-03-29 01:22:00,
2013-03-28 19:32:00,46.0,18.0,-100.00,West,272,1.0,8.0,32,0.00,,,-99.99,129.000000,,2013-03-29 01:32:00,
2013-03-28 19:42:00,46.0,18.0,-100.00,West,272,1.0,8.0,32,0.00,,,-99.99,129.000000,,2013-03-29 01:42:00,
2013-03-28 19:52:00,43.0,18.0,-100.00,WSW,251,0.0,5.0,36,0.00,,,-99.99,35.000000,,2013-03-29 01:52:00,
2013-03-28 20:12:00,43.0,18.0,-100.00,WSW,251,0.0,5.0,36,0.00,,,-99.99,35.000000,,2013-03-29 02:12:00,
2013-03-28 20:22:00,43.0,18.0,-100.00,WSW,251,0.0,5.0,36,0.00,,,-99.99,35.000000,,2013-03-29 02:22:00,
2013-03-28 20:32:00,43.0,18.0,-100.00,WSW,251,0.0,5.0,36,0.00,,,-99.99,35.000000,,2013-03-29 02:32:00,
2013-03-28 20:42:00,43.0,18.0,-100.00,WSW,251,0.0,5.0,36,0.00,,,-99.99,35.000000,,2013-03-29 02:42:00,
2013-03-28 20:52:00,39.0,19.0,-100.00,SSE,148,2.0,5.0,44,0.00,,,-99.99,0.000000,,2013-03-29 02:52:00,
2013-03-28 21:21:00,39.0,19.0,-100.00,SSE,148,2.0,5.0,44,0.00,,,-99.99,0.000000,,2013-03-29 03:21:00,
2013-03-28 21:32:00,39.0,19.0,-100.00,SSE,148,2.0,5.0,44,0.00,,,-99.99,0.000000,,2013-03-29 03:32:00,
2013-03-28 21:42:00,39.0,19.0,-100.00,SSE,148,2.0,5.0,44,0.00,,,-99.99,0.000000,,2013-03-29 03:42:00,
2013-03-28 21:52:00,37.0,19.0,-100.00,East,96,0.0,4.0,48,0.00,,,-99.99,0.000000,,2013-03-29 03:52:00,
2013-03-28 22:22:00,37.0,19.0,-100.00,East,96,0.0,4.0,48,0.00,,,-99.99,0.000000,,2013-03-29 04:22:00,
2013-03-28 22:33:00,37.0,19.0,-100.00,East,96,0.0,4.0,48,0.00,,,-99.99,0.000000,,2013-03-29 04:33:00,
2013-03-28 22:42:00,37.0,19.0,-100.00,East,96,0.0,4.0,48,0.00,,,-99.99,0.000000,,2013-03-29 04:42:00,
2013-03-28 22:52:00,33.0,19.0,-100.00,East,81,1.0,4.0,56,0.00,,,-99.99,0.000000,,2013-03-29 04:52:00,
2013-03-28 23:12:00,33.0,19.0,-100.00,East,81,1.0,4.0,56,0.00,,,-99.99,0.000000,,2013-03-29 05:12:00,
2013-03-28 23:22:00,33.0,19.0,-100.00,East,81,1.0,4.0,56,0.00,,,-99.99,0.000000,,2013-03-29 05:22:00,
2013-03-28 23:32:00,33.0,19.0,-100.00,East,81,1.0,4.0,56,0.00,,,-99.99,0.000000,,2013-03-29 05:32:00,
2013-03-28 23:43:00,33.0,19.0,-100.00,East,81,1.0,4.0,56,0.00,,,-99.99,0.000000,,2013-03-29 05:43:00,